Other Public Products
Issued by NWS Grand Forks, ND

Home | Current Version | Previous Version | Graphics & Text | Print | Product List | Glossary On
Versions: 1 2 3 4 5 6 7 8 9 10 11 12 13 14 15 16 17 18 19 20 21 22 23 24 25 26 27 28 29 30 31 32 33 34 35 36 37 38 39 40 41 42 43 44 45 46 47 48 49 50
000
FPUS83 KFGF 030031
OPUFGF
PRAIRIE TO PINES WEATHER ROUNDUP
NATIONAL WEATHER SERVICE EASTERN NORTH DAKOTA/GRAND FORKS ND
700 PM CDT TUE JUN 02 2015

 **SATELLITE DATA USED TO AUGMENT SKY COVER AT AUTOMATED STATIONS**
 *****  WEATHER ACROSS EASTERN NORTH DAKOTA  *****

CITY           SKY/WX    TMP DP  RH WIND       PRES   REMARKS
GRAND FORKS    CLOUDY    68  61  78 NE6       29.75F
6HR MIN TEMP:  66; 6HR MAX TEMP:  69;

GRAND FORKS AF PTSUNNY   66  61  81 N8        29.76F
GRAND CITY NWS   N/A     66 N/A N/A NE7         N/A
BUXTON           N/A     70  68  93 NE9         N/A
DEVILS LAKE    CLOUDY    63  57  82 NE14      29.77S
6HR MIN TEMP:  63; 6HR MAX TEMP:  68;

FARGO          CLOUDY    79  63  57 SE8       29.72F
6HR MIN TEMP:  69; 6HR MAX TEMP:  80;

WAHPETON ARPT  CLOUDY    77  59  53 S16       29.73F
$$

 *****  WEATHER ACROSS CENTRAL AND WESTERN NORTH DAKOTA  *****

CITY           SKY/WX    TMP DP  RH WIND       PRES   REMARKS
JAMESTOWN      MOSUNNY   75  63  66 E8        29.69S
6HR MIN TEMP:  68; 6HR MAX TEMP:  80;

BISMARCK       CLOUDY    73  66  78 NE3       29.73R
6HR MIN TEMP:  72; 6HR MAX TEMP:  78; 6HR PCP: TRACE;

MINOT          CLOUDY    61  57  87 NE15      29.76S
6HR MIN TEMP:  61; 6HR MAX TEMP:  66; 6HR PCP:  0.01;

MINOT AFB      CLOUDY    60  60 100 E16       29.76S
6HR MIN TEMP:  60; 6HR MAX TEMP:  64; 6HR PCP:  0.01;

GARRISON         N/A     69  61  75 E13       29.74R
6HR MIN TEMP:  68; 6HR MAX TEMP:  72;

WILLISTON      LGT RAIN  56  54  93 NE23G32   29.84R FOG
6HR MIN TEMP:  55; 6HR MAX TEMP:  60; 6HR PCP:  0.53;

DICKINSON      MOSUNNY   70  54  56 W20       29.76F
6HR MIN TEMP:  70; 6HR MAX TEMP:  78;

HETTINGER      SUNNY     73  55  53 NW17      29.79S
6HR MIN TEMP:  73; 6HR MAX TEMP:  79;

$$

 *****  OTHER OBSERVATIONS NORTHEAST NORTH DAKOTA  *****

CITY           SKY/WX    TMP DP  RH WIND       PRES   REMARKS
WALHALLA       FAIR      61  61 100 MISG      29.82S
LANGDON        CLOUDY    61  61 100 E14       29.82F FOG
CAVALIER       CLOUDY    63  63 100 NE9       29.81F
GRAFTON        CLOUDY    61  61 100 NE9       29.80S FOG
CANDO          LGT RAIN  61  59  94 E15       29.79F
FORT TOTTEN    NOT AVBL
ROLLA          CLOUDY    57  57 100 NE10      29.85S
RUGBY          NOT AVBL
 ***** THE ABOVE OBSERVATIONS ARE NON NWS ARE NOT QUALITY
        CONTROLLED AND MAY MIS-REPORT RAIN FOR SNOW...
$$

 *****  OTHER OBSERVATIONS SOUTHEAST NORTH DAKOTA *****

CITY           SKY/WX    TMP DP  RH WIND       PRES   REMARKS
COOPERSTOWN    NOT AVBL
VALLEY CITY    CLOUDY    75  66  73 E6        29.70F
OAKES            N/A     81  66  61 S12       29.67F
GWINNER        NOT AVBL
SHEYENNE NWR     N/A     80  65  60 SE6       29.95S
BUFFALO        NOT AVBL
WYNDMERE         N/A     81  63  54 S10         N/A
 ***** THE ABOVE OBSERVATIONS ARE NON NWS ARE NOT QUALITY
       CONTROLLED AND MAY MIS-REPORT RAIN FOR SNOW...
$$

  *****  WEATHER ACROSS NORTHERN MINNESOTA  *****

CITY           SKY/WX    TMP DP  RH WIND       PRES   REMARKS
FLAG ISLAND    RAIN      57  57 100 SE6       29.83S
WARROAD        RAIN      61  55  82 SE5       29.84S
ROSEAU         HVY RAIN  61  55  82 CALM      29.83S
HALLOCK        TSTM      61  61 100 E6        29.81R
THF RVR FALLS  CLOUDY    66  61  82 CALM      29.79F
6HR MIN TEMP:  64; 6HR MAX TEMP:  68;

HALSTAD          N/A     73  59  61 SE10        N/A
FOSSTON        CLOUDY    70  63  78 SE9       29.79F
BAUDETTE       LGT RAIN  60  58  92 N6        29.84R
6HR MIN TEMP:  59; 6HR MAX TEMP:  63; 6HR PCP:  0.12;

WASKISH        CLOUDY    66  59  77 S3        29.83S
CROOKSTON      CLOUDY    70  63  78 E10       29.76F
$$
  *****  WEATHER ACROSS CENTRAL AND WEST MINNESOTA  *****

CITY           SKY/WX    TMP DP  RH WIND       PRES   REMARKS
BEMIDJI        CLOUDY    69  53  56 S12       29.83F
PARK RAPIDS    CLOUDY    71  53  52 SE13      29.83F
6HR MIN TEMP:  71; 6HR MAX TEMP:  75; 6HR PCP: TRACE;

WADENA         CLOUDY    73  54  49 S12       29.81F
DETROIT LAKES  MOSUNNY   72  55  56 SE9       29.80F
MOORHEAD       PTSUNNY   79  63  57 S15       29.72F
FERGUS FALLS   CLOUDY    79  61  53 S14       29.75F
ELBOW LAKE     CLOUDY    78  60  54 S20G26    29.77S
6HR MIN TEMP:  67; 6HR MAX TEMP:  81;

MORRIS MN      MOSUNNY   81  59  47 S24       29.76S
STAPLES        MOSUNNY   72  52  49 SE8       29.83F
WHEATON        MOSUNNY   79  61  53 S15G23    29.75S
$$
  *****  WEATHER ELSEWHERE ACROSS MINNESOTA  *****

CITY           SKY/WX    TMP DP  RH WIND       PRES   REMARKS
DULUTH         CLOUDY    61  43  51 SE8       29.93F
6HR MIN TEMP:  61; 6HR MAX TEMP:  74;

INTRNTL FALLS  LGT RAIN  61  57  87 SE5       29.84F
6HR MIN TEMP:  57; 6HR MAX TEMP:  66; 6HR PCP:  0.08;

ELY            CLOUDY    70  46  43 S10       29.90S
CLOQUET        CLOUDY    61  45  55 E6        29.93S
BRAINERD       CLOUDY    69  54  58 SE10      29.87F
6HR MIN TEMP:  68; 6HR MAX TEMP:  74; 6HR PCP: TRACE;

HIBBING        CLOUDY    71  49  45 S6        29.89S
6HR MIN TEMP:  71; 6HR MAX TEMP:  76;

ALEXANDRIA     PTSUNNY   77  56  48 S20G30    29.83S
6HR MIN TEMP:  68; 6HR MAX TEMP:  79;

SAINT CLOUD    PTSUNNY   75  53  46 S15G23    29.86F
6HR MIN TEMP:  71; 6HR MAX TEMP:  75;

MINNEAPOLIS    PTSUNNY   75  52  44 S14G25    29.91F
6HR MIN TEMP:  72; 6HR MAX TEMP:  76;

$$

  *****  WEATHER ACROSS SOUTH DAKOTA  *****

CITY           SKY/WX    TMP DP  RH WIND       PRES   REMARKS
SIOUX FALLS    MOSUNNY   77  62  59 S18G25    29.82S
6HR MIN TEMP:  72; 6HR MAX TEMP:  78;

BROOKINGS      SUNNY     79  63  57 S22G29    29.80S
WATERTOWN      MOSUNNY   79  60  52 S18G29    29.76S
6HR MIN TEMP:  72; 6HR MAX TEMP:  80;

HURON          MOSUNNY   82  62  50 S18G26    29.71S
6HR MIN TEMP:  78; 6HR MAX TEMP:  85;

SISSETON         N/A     82  62  50 S17       29.72F
ABERDEEN       MOSUNNY   84  64  50 S16       29.66F
6HR MIN TEMP:  76; 6HR MAX TEMP:  88;

MITCHELL       MOSUNNY   81  61  50 S18G24    29.75S
PIERRE         MOSUNNY   86  61  42 N8        29.70R
6HR MIN TEMP:  83; 6HR MAX TEMP:  89;

MOBRIDGE       MOSUNNY   86  65  49 N8        29.67S
RAPID CITY     TSTM      61  54  77 NE20G25   29.86R VSB 1/2
6HR MIN TEMP:  70; 6HR MAX TEMP:  82; 6HR PCP:  0.02;

$$

  *****  SOME WEATHER IN NEARBY STATES *****

CITY           SKY/WX    TMP DP  RH WIND       PRES   REMARKS
GLASGOW MT     CLOUDY    61  51  70 NE6       29.90S
6HR MIN TEMP:  55; 6HR MAX TEMP:  62; 6HR PCP:  0.10;

GREAT FALLS MT CLOUDY    59  50  72 NE8       29.91R
6HR MIN TEMP:  56; 6HR MAX TEMP:  69; 6HR PCP:  0.05;

CHEYENNE WY    MOSUNNY   79  36  21 SW3       29.94S
6HR MIN TEMP:  76; 6HR MAX TEMP:  83;

SCOTTSBLUFF NE PTSUNNY   76  51  41 NE25G33   29.82R THUNDER
6HR MIN TEMP:  77; 6HR MAX TEMP:  88;

OMAHA NE       PTSUNNY   71  60  68 SE22G31   29.91S
6HR MIN TEMP:  71; 6HR MAX TEMP:  77;

DES MOINES IA  PTSUNNY   71  55  56 S14       29.97F
6HR MIN TEMP:  67; 6HR MAX TEMP:  73;

DAVENPORT IA   PTSUNNY   73  49  42 S7        30.04F
6HR MIN TEMP:  69; 6HR MAX TEMP:  75;

CHICAGO IL     MOSUNNY   68  47  46 E10       30.08R
6HR MIN TEMP:  67; 6HR MAX TEMP:  70;

EAU CLAIRE WI  MOSUNNY   72  49  44 S15       29.98S
6HR MIN TEMP:  71; 6HR MAX TEMP:  75;

LA CROSSE WI   SUNNY     73  49  42 S9        30.00S
6HR MIN TEMP:  72; 6HR MAX TEMP:  76;

$$

  *****  SOME NATIONAL WEATHER *****

CITY           SKY/WX    TMP DP  RH WIND       PRES   REMARKS


USA.gov is the U.S. government's official web portal to all federal, state and local government web resources and services.